map of KTAN home
KTAN - Airport
Location
City:  Taunton, Massachusetts, United States
Name:Taunton Municipal - King Field
ICAO:KTAN
FAA LID:TAN

Details
Type:Airport (Airfield)
Use:Public/Civil
Latitude:4152'28"N (41.874467)
Longitude:7100'59"W (-71.016316)
Datum:WGS 1984
Elevation:41 ft (12 m)
Variation:14.58W (WMM2015 magnetic declination)
0.06 annual change
Runways:2
Longest:3500 × 75 ft (1067 × 23 m), paved

Time
Time Zone:UTC-5 (DST-4)
Local Time:

Weather
METAR:KTAN 272352Z AUTO 19006KT 10SM OVC020 16/13 A2993 RMK AO2 SLP136 T01560128 10206 20156 53012

Related Locations
Nearby:
Farthest:MQZ: 11792 mi / 18977 km
Margaret River [Margaret River Airport], WA, AU

Find:

   beyond  
but within

Other Information
Maps:
NOTAMs:
Links:
Sources:

  
flag of United States
flag of Massachusetts
  

Sectional Chart

Flight Planning
at skyvector.com

Satellite Image

Google Maps Satellite view

 

Copyright © 2004-2017 Karl L. Swartz. All rights reserved.
The Great Circle Mapper name and logo are trademarks of the Great Circle Mapper.
All other trademarks mentioned herein belong to their respective owners.
Please see credits for attibutions and further copyright information.

  Follow gcmap on Facebook Follow gcmap on Twitter Follow gcmap on Google+ GCmap on LinkedIn

hCard Microformat

Geo Microformat